International Skating Union - Official Site

Essent ISU World Cup Berlin
March 9-11, 2012

Draw | Lap Times | Index | World Cup

Referee: Daniel  CABELDUC  (SWE)
Starter: John Magne  ELIASSEN  (NOR)
StartTime: EndTime: Air Temp: Ice Temp: Humidity:
14:45 16:32 14.8℃ -5.2℃
Result 5000m Men Division A
Rankings as of Mar 10 2012 4:54PM
Rank: No.: Name: Nation: Time: Behind: Points:
1 42 Sven  KRAMER NED NED 6:14.69200m - 18.16 - (18.1)
600m - 47.26 - (29.0)
1000m - 1:17.04 - (29.7)
1400m - 1:47.04 - (30.0)
1800m - 2:16.77 - (29.7)
2200m - 2:46.64 - (29.8)
2600m - 3:16.35 - (29.7)
3000m - 3:46.47 - (30.1)
3400m - 4:16.32 - (29.8)
3800m - 4:46.23 - (29.9)
4200m - 5:15.87 - (29.6)
4600m - 5:45.34 - (29.4)
5000m - 6:14.69 - (29.3)
150
2 43 Bob  de JONG NED NED 6:17.83200m - 19.46 - (19.4)
600m - 49.58 - (30.1)
1000m - 1:19.86 - (30.2)
1400m - 1:49.79 - (29.9)
1800m - 2:19.71 - (29.9)
2200m - 2:49.52 - (29.8)
2600m - 3:19.44 - (29.9)
3000m - 3:49.03 - (29.5)
3400m - 4:18.72 - (29.6)
3800m - 4:48.47 - (29.7)
4200m - 5:17.99 - (29.5)
4600m - 5:47.82 - (29.8)
5000m - 6:17.83 - (30.0)
3.14 120
3 68 Jonathan  KUCK USA USA 6:19.98200m - 19.64 - (19.6)
600m - 49.66 - (30.0)
1000m - 1:19.29 - (29.6)
1400m - 1:49.36 - (30.0)
1800m - 2:19.14 - (29.7)
2200m - 2:48.94 - (29.8)
2600m - 3:18.46 - (29.5)
3000m - 3:48.05 - (29.5)
3400m - 4:17.67 - (29.6)
3800m - 4:47.78 - (30.1)
4200m - 5:18.16 - (30.3)
4600m - 5:48.78 - (30.6)
5000m - 6:19.98 - (31.1)
5.29 105
4 44 Jan  BLOKHUIJSEN NED NED 6:20.27200m - 18.59 - (18.5)
600m - 47.77 - (29.1)
1000m - 1:17.18 - (29.4)
1400m - 1:46.56 - (29.3)
1800m - 2:16.36 - (29.8)
2200m - 2:46.40 - (30.0)
2600m - 3:16.59 - (30.1)
3000m - 3:46.81 - (30.2)
3400m - 4:17.14 - (30.3)
3800m - 4:47.77 - (30.6)
4200m - 5:18.48 - (30.7)
4600m - 5:49.33 - (30.8)
5000m - 6:20.27 - (30.9)
5.58 90
5 41 Jorrit  BERGSMA NED NED 6:20.93200m - 19.98 - (19.9)
600m - 49.95 - (29.9)
1000m - 1:19.52 - (29.5)
1400m - 1:48.92 - (29.4)
1800m - 2:18.48 - (29.5)
2200m - 2:48.25 - (29.7)
2600m - 3:18.23 - (29.9)
3000m - 3:48.12 - (29.8)
3400m - 4:18.46 - (30.3)
3800m - 4:48.81 - (30.3)
4200m - 5:19.65 - (30.8)
4600m - 5:50.32 - (30.6)
5000m - 6:20.93 - (30.6)
6.24 75
6 45 Douwe  de VRIES NED NED 6:22.67200m - 18.91 - (18.9)
600m - 48.16 - (29.2)
1000m - 1:17.72 - (29.5)
1400m - 1:47.37 - (29.6)
1800m - 2:17.22 - (29.8)
2200m - 2:47.46 - (30.2)
2600m - 3:17.81 - (30.3)
3000m - 3:48.44 - (30.6)
3400m - 4:19.20 - (30.7)
3800m - 4:50.03 - (30.8)
4200m - 5:21.05 - (31.0)
4600m - 5:52.01 - (30.9)
5000m - 6:22.67 - (30.6)
7.98 45
7 12 Alexis  CONTIN FRA FRA 6:23.80200m - 18.54 - (18.5)
600m - 48.38 - (29.8)
1000m - 1:18.29 - (29.9)
1400m - 1:48.34 - (30.0)
1800m - 2:18.21 - (29.8)
2200m - 2:48.47 - (30.2)
2600m - 3:18.81 - (30.3)
3000m - 3:49.37 - (30.5)
3400m - 4:19.84 - (30.4)
3800m - 4:50.87 - (31.0)
4200m - 5:21.99 - (31.1)
4600m - 5:53.03 - (31.0)
5000m - 6:23.80 - (30.7)
9.11 40
8 51 Håvard  BØKKO NOR NOR 6:23.82200m - 18.32 - (18.3)
600m - 47.46 - (29.1)
1000m - 1:17.47 - (30.0)
1400m - 1:47.86 - (30.3)
1800m - 2:18.15 - (30.2)
2200m - 2:48.40 - (30.2)
2600m - 3:18.87 - (30.4)
3000m - 3:49.31 - (30.4)
3400m - 4:19.89 - (30.5)
3800m - 4:50.58 - (30.6)
4200m - 5:21.53 - (30.9)
4600m - 5:52.65 - (31.1)
5000m - 6:23.82 - (31.1)
9.13 36
9 60 Ivan  SKOBREV RUS RUS 6:25.88200m - 19.73 - (19.7)
600m - 50.15 - (30.4)
1000m - 1:20.41 - (30.2)
1400m - 1:50.99 - (30.5)
1800m - 2:21.49 - (30.5)
2200m - 2:52.14 - (30.6)
2600m - 3:22.88 - (30.7)
3000m - 3:53.57 - (30.6)
3400m - 4:23.85 - (30.2)
3800m - 4:54.00 - (30.1)
4200m - 5:24.23 - (30.2)
4600m - 5:54.89 - (30.6)
5000m - 6:25.88 - (30.9)
11.19 32
10 16 Moritz  GEISREITER GER GER 6:26.07200m - 19.03 - (19.0)
600m - 48.40 - (29.3)
1000m - 1:18.57 - (30.1)
1400m - 1:48.58 - (30.0)
1800m - 2:18.97 - (30.3)
2200m - 2:49.34 - (30.3)
2600m - 3:20.20 - (30.8)
3000m - 3:51.18 - (30.9)
3400m - 4:21.87 - (30.6)
3800m - 4:52.75 - (30.8)
4200m - 5:23.58 - (30.8)
4600m - 5:54.94 - (31.3)
5000m - 6:26.07 - (31.1)
11.38 28
11 17 Patrick  BECKERT GER GER 6:28.22200m - 19.85 - (19.8)
600m - 50.29 - (30.4)
1000m - 1:20.88 - (30.5)
1400m - 1:51.63 - (30.7)
1800m - 2:22.17 - (30.5)
2200m - 2:52.72 - (30.5)
2600m - 3:23.46 - (30.7)
3000m - 3:54.25 - (30.7)
3400m - 4:24.90 - (30.6)
3800m - 4:55.65 - (30.7)
4200m - 5:26.42 - (30.7)
4600m - 5:57.19 - (30.7)
5000m - 6:28.22 - (31.0)
13.53 24
12 19 Marco  WEBER GER GER 6:28.35200m - 19.34 - (19.3)
600m - 49.46 - (30.1)
1000m - 1:19.53 - (30.0)
1400m - 1:49.49 - (29.9)
1800m - 2:19.53 - (30.0)
2200m - 2:49.92 - (30.3)
2600m - 3:20.46 - (30.5)
3000m - 3:51.37 - (30.9)
3400m - 4:22.43 - (31.0)
3800m - 4:53.89 - (31.4)
4200m - 5:25.42 - (31.5)
4600m - 5:57.04 - (31.6)
5000m - 6:28.35 - (31.2)
13.66 21
13 1 Bart  SWINGS BEL BEL 6:28.46200m - 19.04 - (19.0)
600m - 48.82 - (29.7)
1000m - 1:19.00 - (30.1)
1400m - 1:49.99 - (30.9)
1800m - 2:20.40 - (30.4)
2200m - 2:51.27 - (30.8)
2600m - 3:22.10 - (30.8)
3000m - 3:52.76 - (30.6)
3400m - 4:23.64 - (30.8)
3800m - 4:54.74 - (31.1)
4200m - 5:25.98 - (31.2)
4600m - 5:57.14 - (31.1)
5000m - 6:28.46 - (31.3)
13.77 18
14 61 Denis  YUSKOV RUS RUS 6:28.49200m - 19.04 - (19.0)
600m - 49.23 - (30.1)
1000m - 1:19.46 - (30.2)
1400m - 1:49.71 - (30.2)
1800m - 2:20.11 - (30.4)
2200m - 2:50.58 - (30.4)
2600m - 3:20.82 - (30.2)
3000m - 3:51.41 - (30.5)
3400m - 4:22.14 - (30.7)
3800m - 4:53.14 - (31.0)
4200m - 5:24.83 - (31.6)
4600m - 5:56.69 - (31.8)
5000m - 6:28.49 - (31.7)
13.80 16
15 54 Shane  DOBBIN NZL NZL 6:28.90200m - 19.45 - (19.4)
600m - 49.44 - (29.9)
1000m - 1:20.25 - (30.8)
1400m - 1:51.36 - (31.1)
1800m - 2:22.44 - (31.0)
2200m - 2:53.56 - (31.1)
2600m - 3:24.89 - (31.3)
3000m - 3:55.72 - (30.8)
3400m - 4:26.46 - (30.7)
3800m - 4:57.21 - (30.7)
4200m - 5:28.02 - (30.8)
4600m - 5:58.45 - (30.4)
5000m - 6:28.90 - (30.4)
14.21 14
16 18 Alexej  BAUMGÄRTNER GER GER 6:29.53200m - 19.82 - (19.8)
600m - 50.18 - (30.3)
1000m - 1:21.16 - (30.9)
1400m - 1:51.51 - (30.3)
1800m - 2:22.03 - (30.5)
2200m - 2:52.62 - (30.5)
2600m - 3:23.47 - (30.8)
3000m - 3:54.03 - (30.5)
3400m - 4:25.11 - (31.0)
3800m - 4:55.82 - (30.7)
4200m - 5:27.08 - (31.2)
4600m - 5:58.31 - (31.2)
5000m - 6:29.53 - (31.2)
14.84 12
17 52 Sverre  LUNDE PEDERSEN NOR NOR 6:29.86200m - 19.07 - (19.0)
600m - 49.46 - (30.3)
1000m - 1:20.72 - (31.2)
1400m - 1:51.83 - (31.1)
1800m - 2:22.75 - (30.9)
2200m - 2:53.94 - (31.1)
2600m - 3:25.15 - (31.2)
3000m - 3:56.11 - (30.9)
3400m - 4:26.90 - (30.7)
3800m - 4:57.51 - (30.6)
4200m - 5:27.96 - (30.4)
4600m - 5:58.55 - (30.5)
5000m - 6:29.86 - (31.3)
15.17 10
18 2 Jordan  BELCHOS CAN CAN 6:31.07200m - 19.25 - (19.2)
600m - 49.10 - (29.8)
1000m - 1:19.48 - (30.3)
1400m - 1:49.68 - (30.2)
1800m - 2:20.09 - (30.4)
2200m - 2:50.77 - (30.6)
2600m - 3:21.43 - (30.6)
3000m - 3:52.28 - (30.8)
3400m - 4:23.39 - (31.1)
3800m - 4:55.26 - (31.8)
4200m - 5:27.27 - (32.0)
4600m - 5:59.42 - (32.1)
5000m - 6:31.07 - (31.6)
16.38 8
19 27 Seung-Hoon  LEE KOR KOR 6:31.11200m - 19.02 - (19.0)
600m - 48.62 - (29.5)
1000m - 1:18.14 - (29.5)
1400m - 1:47.68 - (29.5)
1800m - 2:17.61 - (29.9)
2200m - 2:48.15 - (30.5)
2600m - 3:19.04 - (30.8)
3000m - 3:50.26 - (31.2)
3400m - 4:21.62 - (31.3)
3800m - 4:53.37 - (31.7)
4200m - 5:25.63 - (32.2)
4600m - 5:58.35 - (32.7)
5000m - 6:31.11 - (32.7)
16.42 6
20 21 Dmitry  BABENKO KAZ KAZ 6:32.45200m - 18.92 - (18.9)
600m - 49.27 - (30.3)
1000m - 1:20.18 - (30.9)
1400m - 1:51.10 - (30.9)
1800m - 2:22.05 - (30.9)
2200m - 2:53.27 - (31.2)
2600m - 3:24.72 - (31.4)
3000m - 3:56.18 - (31.4)
3400m - 4:27.81 - (31.6)
3800m - 4:59.37 - (31.5)
4200m - 5:30.90 - (31.5)
4600m - 6:01.75 - (30.8)
5000m - 6:32.45 - (30.6)
17.76 5
21 77 Hiroki  HIRAKO JPN JPN 6:35.52200m - 19.14 - (19.1)
600m - 49.35 - (30.2)
1000m - 1:20.42 - (31.0)
1400m - 1:51.89 - (31.4)
1800m - 2:23.39 - (31.4)
2200m - 2:54.98 - (31.5)
2600m - 3:26.41 - (31.4)
3000m - 3:57.82 - (31.4)
3400m - 4:29.27 - (31.4)
3800m - 5:01.04 - (31.7)
4200m - 5:32.71 - (31.6)
4600m - 6:04.12 - (31.4)
5000m - 6:35.52 - (31.3)
20.83 4
22 14 Ewen  FERNANDEZ FRA FRA 6:37.69200m - 18.73 - (18.7)
600m - 48.21 - (29.4)
1000m - 1:19.21 - (30.9)
1400m - 1:51.08 - (31.8)
1800m - 2:22.64 - (31.5)
2200m - 2:54.10 - (31.4)
2600m - 3:25.87 - (31.7)
3000m - 3:57.66 - (31.7)
3400m - 4:29.70 - (32.0)
3800m - 5:01.57 - (31.8)
4200m - 5:33.59 - (32.0)
4600m - 6:05.67 - (32.0)
5000m - 6:37.69 - (32.0)
23.00 3
23 64 Roger  SCHNEIDER SUI SUI 6:42.99200m - 19.42 - (19.4)
600m - 48.85 - (29.4)
1000m - 1:19.17 - (30.3)
1400m - 1:50.31 - (31.1)
1800m - 2:21.59 - (31.2)
2200m - 2:53.21 - (31.6)
2600m - 3:25.23 - (32.0)
3000m - 3:57.31 - (32.0)
3400m - 4:29.77 - (32.4)
3800m - 5:02.59 - (32.8)
4200m - 5:35.98 - (33.3)
4600m - 6:09.45 - (33.4)
5000m - 6:42.99 - (33.5)
28.30 2